User: anonymous
Location: Unspecified
(0.0000°N, 0.0000°E)
Time: 12:35:57
(UTC+02:00)
Language:

Cosmos 2251 - Orbit

View from above orbital plane
View from above orbital plane
View from above satellite
View from above satellite

Ground track
Ground track

The orbit data is extracted from the following two-line orbital elements,

1 22675U 93036A   14107.34421619  .00000069  00000-0  35041-4 0  2306
2 22675 074.0393 167.1172 0025447 210.2621 224.1061 14.32314074 88394
Epoch (UTC): 17 April 2014 08:15:40
Eccentricity: 0.0025447
inclination: 74.0393°
perigee height: 766 km
apogee height: 802 km
right ascension of ascending node: 167.1172°
argument of perigee: 210.2621°
revolutions per day: 14.32314074
mean anomaly at epoch: 224.1061°
orbit number at epoch: 8839

The dashed part of the orbit path shows where the satellite is in the earth's shadow,  

DLR